Powrót do katalogu

SL-16 DEB

AktywnyLEO
NORAD 39712·DEBRIS·🇷🇺 Russia

Wystrzelony Dec 25, 1992 z Baikonur Cosmodrome

Loading…

Następne Przeloty (najbliższe 24 godziny)

TLE

NieaktualneSource: Space-Track

Epoka: Aug 30, 2026, 22:53 UTC

1 39712U 92093KC  26242.95352934  .00000564  00000-0  30657-3 0  9990
2 39712  71.1280 331.5246 0090015 328.8545  30.7260 14.14445234106734

Śledź SL-16 DEB w czasie rzeczywistym z AllMySat

Download on the App Store